This is the latest recevied weather packets stored in our database for station/object N5PA. If no packets are shown the sender has not sent any weather packets the latest 10 day(s).
| Time | Temp. | Humidity | Pressure | Rain* | Wind** | Luminosity | Snow |
|---|---|---|---|---|---|---|---|
| 1777317607 | 30° C | 56% | 1015.1 hPa | 0 mm | - | 969 W/m² | - |
| 1777317306 | 30° C | 56% | 1015 hPa | 0 mm | - | 969 W/m² | - |
| 1777317006 | 30° C | 56% | 1015 hPa | 0 mm | - | 969 W/m² | - |
| 1777316706 | 30° C | 56% | 1014.9 hPa | 0 mm | - | 969 W/m² | - |
| 1777316406 | 30° C | 59% | 1015 hPa | 0 mm | - | 969 W/m² | - |
| 1777316106 | 30° C | 60% | 1015 hPa | 0 mm | - | 970 W/m² | - |
| 1777315806 | 30° C | 58% | 1015.1 hPa | 0 mm | - | 970 W/m² | - |
| 1777315505 | 30° C | 57% | 1015.1 hPa | 0 mm | - | 969 W/m² | - |
| 1777315205 | 30° C | 59% | 1015 hPa | 0 mm | - | 969 W/m² | - |
| 1777314905 | 30° C | 58% | 1015.1 hPa | 0 mm | - | 967 W/m² | - |
| 1777314606 | 30° C | 59% | 1015.2 hPa | 0 mm | - | 969 W/m² | - |
| 1777314306 | 30° C | 58% | 1015.1 hPa | 0 mm | - | 969 W/m² | - |
| 1777314005 | 29.44° C | 58% | 1015.2 hPa | 0 mm | - | 969 W/m² | - |
| 1777313706 | 29.44° C | 60% | 1015.2 hPa | 0 mm | - | 969 W/m² | - |
| 1777313406 | 29.44° C | 59% | 1015.3 hPa | 0 mm | - | 970 W/m² | - |
| 1777312206 | 29.44° C | 59% | 1015.3 hPa | 0 mm | - | 967 W/m² | - |
| 1777311905 | 29.44° C | 60% | 1015.2 hPa | 0 mm | - | 967 W/m² | - |
| 1777311606 | 29.44° C | 59% | 1015.3 hPa | 0 mm | - | 967 W/m² | - |
| 1777311306 | 29.44° C | 60% | 1015.3 hPa | 0 mm | - | 967 W/m² | - |
| 1777311006 | 29.44° C | 61% | 1015.3 hPa | 0 mm | - | 967 W/m² | - |
| 1777310705 | 28.89° C | 60% | 1015.3 hPa | 0 mm | - | 969 W/m² | - |
| 1777310405 | 28.89° C | 61% | 1015.3 hPa | 0 mm | - | 969 W/m² | - |
| 1777310107 | 28.89° C | 62% | 1015.2 hPa | 0 mm | - | 969 W/m² | - |
| 1777309805 | 28.89° C | 60% | 1015.3 hPa | 0 mm | - | 969 W/m² | - |
| 1777309505 | 28.33° C | 62% | 1015.3 hPa | 0 mm | - | 969 W/m² | - |
* Rain latest hour (hover to see other rain measurements)
** Current wind speed in m/s (hover to see current wind gust speed)